Terug naar catalogus

ATLAS 5 CENTAUR DEB

ActiefHEO
NORAD 55855·DEBRIS·🇺🇸 United States

Gelanceerd Oct 17, 2018 vanaf Cape Canaveral Space Force Station

Loading…

Volgende Passages (komende 24 uur)

TLE

VerouderendSource: Space-Track

Epoch: Aug 27, 2026, 08:11 UTC

1 55855U 18079HH  26239.34100164 -.00000138  00000-0  00000-0 0  9997
2 55855  13.4053   9.4322 4631880  11.9377 355.9625  1.90885264 19439

Volg ATLAS 5 CENTAUR DEB in realtime met AllMySat

Download on the App Store